Weather History for Greenville, AL

Change the Weather History Date:

Saturday, September 7, 2013

  Actual Average Record
Temperature  
Mean Temperature 80 °F -  
Max Temperature 91 °F 88 °F 101 °F (1954)
Min Temperature 68 °F 65 °F 53 °F (1988)
Cooling Degree Days 14    
Growing Degree Days 30 (Base 50)    
Moisture  
Dew Point 69 °F    
Average Humidity 75    
Maximum Humidity 91    
Minimum Humidity 47    
Precipitation  
Precipitation 0.00 in - - ()
Sea Level Pressure  
Sea Level Pressure 30.02 in    
Wind  
Wind Speed 1 mph (East)    
Max Wind Speed 7 mph    
Max Gust Speed -    
Visibility 10 miles    
Events Hail    
Averages and records for this station are not official NWS values.
T = Trace of Precipitation, MM = Missing Value Source: NWS Daily Summary

Daily Weather History Graph

Daily Weather History Graph

Search for Another Location

Airport:

Trip Planner

Search our weather history database for the weather conditions in past years. The results will help you decide how hot, cold, wet, or windy it might be!

Date:

Astronomy

Sep. 07, 2013 Rise Set
Actual Time 6:25 AM CDT 7:02 PM CDT
Civil Twilight 6:01 AM CDT 7:27 PM CDT
Nautical Twilight 5:32 AM CDT 7:55 PM CDT
Astronomical Twilight 5:02 AM CDT 8:25 PM CDT
Moon 8:28 AM CDT (9/7) 8:13 PM CDT (9/7)
Length of Visible Light 13h 25m
Length of Day
12h 36m
Waxing Crescent, 5% of the Moon is Illuminated
Sep 7
Waxing Crescent
Sep 12
First Quarter
Sep 19
Full
Sep 26
Last Quarter
Oct 4
New

Hourly Weather History & Observations

Time (CDT) Temp. Heat Index Dew Point Humidity Pressure Visibility Wind Dir Wind Speed Gust Speed Precip Events Conditions
12:56 AM 70.0 °F - 66.0 °F 87% 30.02 in 10.0 mi Calm Calm - N/A   Scattered Clouds
1:56 AM 69.1 °F - 66.0 °F 90% 30.02 in 10.0 mi Calm Calm - N/A   Partly Cloudy
2:56 AM 69.1 °F - 66.0 °F 90% 30.01 in 9.0 mi Calm Calm - N/A   Scattered Clouds
3:56 AM 68.0 °F - 64.9 °F 90% 30.01 in 10.0 mi Calm Calm - N/A   Clear
4:56 AM 68.0 °F - 64.9 °F 90% 30.01 in 9.0 mi North 3.5 mph - N/A   Partly Cloudy
5:56 AM 68.0 °F - 64.9 °F 90% 30.03 in 9.0 mi Calm Calm - N/A   Clear
6:56 AM 71.1 °F - 66.9 °F 87% 30.04 in 8.0 mi Calm Calm - N/A   Clear
7:56 AM 75.0 °F - 70.0 °F 84% 30.05 in 7.0 mi Calm Calm - N/A   Clear
8:56 AM 80.1 °F 83.8 °F 72.0 °F 76% 30.06 in 9.0 mi East 6.9 mph - N/A   Clear
9:56 AM 82.9 °F 88.0 °F 72.0 °F 69% 30.06 in 10.0 mi ESE 5.8 mph - N/A   Clear
10:56 AM 88.0 °F 95.6 °F 73.0 °F 61% 30.06 in 10.0 mi East 6.9 mph - N/A   Mostly Cloudy
11:56 AM 86.0 °F 91.5 °F 71.1 °F 61% 30.05 in 10.0 mi Variable 3.5 mph - N/A   Mostly Cloudy
1:56 PM 89.1 °F 94.1 °F 70.0 °F 53% 30.02 in 10.0 mi Calm Calm - N/A   Overcast
2:56 PM 91.9 °F 96.9 °F 69.1 °F 47% 29.99 in 10.0 mi Variable 3.5 mph - N/A   Clear
3:56 PM 91.0 °F 95.2 °F 68.0 °F 47% 29.98 in 10.0 mi ESE 3.5 mph - N/A   Scattered Clouds
4:56 PM 86.0 °F 90.1 °F 69.1 °F 57% 29.97 in 10.0 mi ESE 3.5 mph - N/A   Clear
5:56 PM 88.0 °F 92.1 °F 69.1 °F 53% 29.97 in 10.0 mi Calm Calm - N/A   Clear
6:56 PM 82.0 °F 86.3 °F 71.1 °F 69% 29.98 in 10.0 mi Calm Calm - N/A   Clear
7:45 PM - - - N/A% - - North - - N/A Hail Hail
7:56 PM 79.0 °F - 73.0 °F 82% 29.99 in 10.0 mi Calm Calm - N/A   Clear
8:56 PM 77.0 °F - 72.0 °F 84% 30.01 in 10.0 mi Calm Calm - N/A   Scattered Clouds
9:56 PM 75.9 °F - 71.1 °F 85% 30.01 in 10.0 mi Calm Calm - N/A   Clear
11:56 PM 72.0 °F - 69.1 °F 91% 30.01 in 7.0 mi Calm Calm - N/A   Clear